Weather History for KHDO - March, 2014

Change the Weather History Date:

Tuesday, March 25, 2014

  Actual Average Record
Temperature  
Mean Temperature 60 °F -  
Max Temperature 77 °F 71 °F 90 °F (2011)
Min Temperature 45 °F 49 °F 37 °F (2013)
Degree Days  
Heating Degree Days 5    
Growing Degree Days 10 (Base 50)    
Moisture  
Dew Point 40 °F    
Average Humidity 51    
Maximum Humidity 86    
Minimum Humidity 21    
Precipitation  
Precipitation 0.00 in - - ()
Sea Level Pressure  
Sea Level Pressure 30.21 in    
Wind  
Wind Speed 8 mph (ENE)    
Max Wind Speed 18 mph    
Max Gust Speed 26 mph    
Visibility 10 miles    
Events Rain    
Averages and records for this station are not official NWS values.
T = Trace of Precipitation, MM = Missing Value Source: NWS Daily Summary

Daily Weather History Graph

Daily Weather History Graph

Search for Another Location

Airport or City:

Trip Planner

Search our weather history database for the weather conditions in past years. The results will help you decide how hot, cold, wet, or windy it might be!

Date:

Astronomy

Mar. 25, 2014 Rise Set
Actual Time 7:34 AM CDT 7:51 PM CDT
Civil Twilight 7:10 AM CDT 8:14 PM CDT
Nautical Twilight 6:43 AM CDT 8:42 PM CDT
Astronomical Twilight 6:15 AM CDT 9:10 PM CDT
Moon 3:34 AM CDT (3/25) 2:45 PM CDT (3/25)
Length of Visible Light 13h 04m
Length of Day
12h 16m
Waning Crescent, 32% of the Moon is Illuminated
Mar 25
Waning Crescent
Mar 30
New
Apr 7
First Quarter
Apr 15
Full
Apr 22
Last Quarter

Hourly Weather History & Observations

Time (CDT) Temp. Windchill Dew Point Humidity Pressure Visibility Wind Dir Wind Speed Gust Speed Precip Events Conditions
12:51 AM 50.0 °F - 44.1 °F 80% 30.15 in 10.0 mi NNE 4.6 mph - N/A   Clear
1:51 AM 46.9 °F - 42.1 °F 83% 30.16 in 9.0 mi NW 5.8 mph - N/A   Clear
2:51 AM 46.0 °F 43.1 °F 42.1 °F 86% 30.17 in 10.0 mi NNW 5.8 mph - N/A   Clear
4:51 AM 45.0 °F 42.6 °F 39.9 °F 82% 30.15 in 10.0 mi NNW 4.6 mph - N/A   Clear
5:51 AM 45.0 °F 41.2 °F 41.0 °F 86% 30.18 in 10.0 mi North 6.9 mph - N/A   Clear
6:51 AM 46.9 °F - 43.0 °F 86% 30.21 in 10.0 mi North 4.6 mph - N/A   Clear
7:51 AM 46.9 °F - 43.0 °F 86% 30.25 in 9.0 mi North 4.6 mph - N/A   Clear
8:51 AM 53.1 °F - 46.9 °F 80% 30.27 in 10.0 mi NE 6.9 mph - N/A   Clear
9:51 AM 61.0 °F - 46.9 °F 60% 30.29 in 10.0 mi ENE 8.1 mph - N/A   Clear
10:51 AM 66.9 °F - 43.0 °F 42% 30.29 in 10.0 mi East 12.7 mph - N/A   Clear
11:51 AM 70.0 °F - 37.9 °F 31% 30.29 in 10.0 mi East 18.4 mph 26.5 mph N/A   Clear
12:51 PM 70.0 °F - 37.0 °F 30% 30.28 in 10.0 mi ESE 11.5 mph - N/A   Clear
1:51 PM 75.0 °F - 39.9 °F 28% 30.25 in 10.0 mi East 12.7 mph 24.2 mph N/A   Clear
2:51 PM 75.0 °F - 35.1 °F 23% 30.22 in 10.0 mi East 12.7 mph 23.0 mph N/A   Clear
3:51 PM 73.9 °F - 33.1 °F 22% 30.19 in 10.0 mi East 12.7 mph 23.0 mph N/A   Clear
4:51 PM 73.9 °F - 30.9 °F 21% 30.18 in 10.0 mi ESE 11.5 mph 21.9 mph N/A   Clear
5:51 PM 73.0 °F - 35.1 °F 25% 30.18 in 10.0 mi ESE 13.8 mph 23.0 mph N/A   Clear
6:51 PM 70.0 °F - 37.0 °F 30% 30.17 in 10.0 mi East 11.5 mph - N/A   Clear
7:51 PM 68.0 °F - 39.0 °F 35% 30.16 in 10.0 mi East 12.7 mph - N/A   Clear
8:51 PM 66.0 °F - 39.9 °F 38% 30.16 in 10.0 mi East 10.4 mph - 0.00 in Rain Light Rain
9:51 PM 64.9 °F - 39.9 °F 40% 30.17 in 10.0 mi ESE 9.2 mph - 0.00 in   Overcast
10:51 PM 64.0 °F - 39.9 °F 41% 30.19 in 10.0 mi ESE 12.7 mph - N/A   Mostly Cloudy
11:51 PM 63.0 °F - 39.9 °F 43% 30.19 in 10.0 mi SE 10.4 mph - N/A   Partly Cloudy